Location: Strawberry
(45.6646°N, 111.9596°W)
Time: 20:24:46
(UTC+00:00)

Explorer 11/Cluster Stage 4 - Pass Details

Date: 05 October 2022
Orbit: 466 x 1248 km, 28.8° (Epoch: 28 November)

Event Time Altitude Azimuth Distance (km) Brightness Sun altitude
Rises 20:21:45 0° 246° (WSW) 4,156 10.8 37.3°
Reaches altitude 10° 20:25:36 10° 231° (SW) 3,133 10.6 37.1°
Maximum altitude 20:30:56 20° 188° (S) 2,334 10.6 36.7°
Drops below altitude 10° 20:35:49 10° 144° (SE) 2,829 9.9 36.3°
Sets 20:39:05 0° 128° (SE) 3,640 10.1 36.1°
